Preview of NWS' New Version of Forecast
This preview is not operational and should not be used for support decisions.

Regional Weather Roundup (RWR)

Issued by National Weather Service (NWS)

                            
000
ASUS43 KTOP 250608
RWRKS 

WEATHER ROUNDUP FOR KANSAS
NATIONAL WEATHER SERVICE GOODLAND KS
100 AM CDT SUN AUG 25 2019

NOTE:  "FAIR" INDICATES FEW OR NO CLOUDS BELOW 12,000 FEET WITH NO
SIGNIFICANT WEATHER AND/OR OBSTRUCTIONS TO VISIBILITY.

KSZ001>006-013>018-027>032-041>047-250700-
NORTHWEST KANSAS
  
CITY           SKY/WX    TMP DP  RH WIND       PRES   REMARKS
GOODLAND       CLEAR     62  62 100 SE5       29.97R                  
6HR MIN TEMP:  62; 6HR MAX TEMP:  75;                                

HAYS           CLOUDY    63  59  87 NE9G17    29.65F                  
HILL CITY      PTCLDY    62  59  90 E8        29.96S                  
6HR MIN TEMP:  62; 6HR MAX TEMP:  75; 6HR PCP:  0.15;                

RUSSELL        RAIN      61  59  93 NE10      29.98S                  
6HR MIN TEMP:  60; 6HR MAX TEMP:  76; 6HR PCP:  0.66;                

$$

KSZ061>065-074>080-084>089-250700-
SOUTHWEST KANSAS
  
CITY           SKY/WX    TMP DP  RH WIND       PRES   REMARKS
DODGE CITY     MOCLDY    73  71  93 S10       29.92S                  
6HR MIN TEMP:  73; 6HR MAX TEMP:  82; 6HR PCP: TRACE;                

ELKHART        CLEAR     72  70  93 SE6       29.96F                  
GARDEN CITY    CLEAR     69  66  90 S7        29.93S                  
6HR MIN TEMP:  69; 6HR MAX TEMP:  82; 6HR PCP:  0.01;                

GREAT BEND     TSTM      61  59  94 N8G16     29.99S                  
LIBERAL        CLEAR     74  68  81 SE9       29.95R                  
PRATT          MOCLDY    75  73  91 SE14      29.90F                  
6HR MIN TEMP:  75; 6HR MAX TEMP:  82;                                

$$

KSZ066>073-081>083-090>101-250700-
SOUTHEAST KANSAS
  
CITY           SKY/WX    TMP DP  RH WIND       PRES   REMARKS
CHANUTE        CLOUDY    72  68  87 E13G21    29.96F                  
6HR MIN TEMP:  72; 6HR MAX TEMP:  74;                                

COFFEYVILLE    CLOUDY    72  69  90 E6        29.94F                  
6HR MIN TEMP:  72; 6HR MAX TEMP:  79;                                

HUTCHINSON     CLOUDY    71  68  90 E16       29.89F                  
6HR MIN TEMP:  71; 6HR MAX TEMP:  81;                                

MEDICINE LODGE   N/A     75  73  93 SE9       29.88F                  
NEWTON         CLOUDY    69  68  96 SE15      29.94F                  
PARSONS        CLOUDY    72  70  93 VRB5      29.97F                  
6HR MIN TEMP:  71; 6HR MAX TEMP:  76;                                

WICHITA INTL   TSTM      73  69  87 SE12      29.92S                  
6HR MIN TEMP:  73; 6HR MAX TEMP:  82; 6HR PCP: TRACE;                

WICHITA JABRA  TSTM      71  69  93 SE14G20   29.92F                  
6HR MIN TEMP:  71; 6HR MAX TEMP:  80; 6HR PCP:  0.04;                

WICHITA MCCONL TSTM      72  68  88 E14       29.93                   
WINFIELD       MOCLDY    73  70  90 E10       29.93F                  
6HR MIN TEMP:  73; 6HR MAX TEMP:  82;                                

$$

KSZ007>012-019>026-033>040-048>060-102>105-250700-
NORTHEAST KANSAS
  
CITY           SKY/WX    TMP DP  RH WIND       PRES   REMARKS
CONCORDIA      CLOUDY    69  66  90 SE12      29.91F                  
6HR MIN TEMP:  68; 6HR MAX TEMP:  73; 6HR PCP:  0.17;                

EMPORIA        CLOUDY    68  67  96 E10       29.97F                  
6HR MIN TEMP:  68; 6HR MAX TEMP:  72;                                

LAWRENCE       CLOUDY    71  62  73 SE13G18   30.00F                  
6HR MIN TEMP:  70; 6HR MAX TEMP:  73;                                

MANHATTAN      TSTM      68  65  90 E13G21    29.96F                  
6HR MIN TEMP:  68; 6HR MAX TEMP:  73; 6HR PCP:  0.36;                

MARYSVILLE     CLOUDY    66  63  88 SE16G25   29.96F                  
OLATHE IND     CLOUDY    69  62  78 E8        30.01F                  
6HR MIN TEMP:  69; 6HR MAX TEMP:  71;                                

OLATHE EXE     CLOUDY    68  63  84 SE8       30.00F                  
6HR MIN TEMP:  68; 6HR MAX TEMP:  69;                                

SALINA         CLOUDY    68  66  93 SE24G35   29.87F                  
6HR MIN TEMP:  68; 6HR MAX TEMP:  77; 6HR PCP:  0.13;                

TOPEKA BILLARD CLOUDY    69  62  78 SE7       29.99F                  
6HR MIN TEMP:  68; 6HR MAX TEMP:  72;                                

TOPEKA FORBES  MOCLDY    70  62  76 SE7       30.00F                  
6HR MIN TEMP:  69; 6HR MAX TEMP:  72;                                

$$